Year,Month,Day,Hour,Minute,Value (Times are PST for temperature in C)
2014,04,28,00,00,8.30
2014,04,28,00,01,8.30
2014,04,28,00,02,8.30
2014,04,28,00,03,8.30
2014,04,28,00,04,8.30
2014,04,28,00,05,8.30
2014,04,28,00,06,8.20
2014,04,28,00,07,8.10
2014,04,28,00,08,8.00
2014,04,28,00,09,7.90
2014,04,28,00,10,7.80
2014,04,28,00,11,7.70
2014,04,28,00,12,7.60
2014,04,28,00,13,7.60
2014,04,28,00,14,7.50
2014,04,28,00,15,7.50
2014,04,28,00,16,7.40
2014,04,28,00,17,7.40
2014,04,28,00,18,7.40
2014,04,28,00,19,7.40
2014,04,28,00,20,7.40
2014,04,28,00,21,7.40
2014,04,28,00,22,7.50
2014,04,28,00,23,7.60
2014,04,28,00,24,7.60
2014,04,28,00,25,7.70
2014,04,28,00,26,7.70
2014,04,28,00,27,7.70
2014,04,28,00,28,7.70
2014,04,28,00,29,7.70
2014,04,28,00,30,7.70
2014,04,28,00,31,7.70
2014,04,28,00,32,7.70
2014,04,28,00,33,7.80
2014,04,28,00,34,7.80
2014,04,28,00,35,7.80
2014,04,28,00,36,7.80
2014,04,28,00,37,7.80
2014,04,28,00,38,7.80
2014,04,28,00,39,7.90
2014,04,28,00,40,7.90
2014,04,28,00,41,7.90
2014,04,28,00,42,7.90
2014,04,28,00,43,7.90
2014,04,28,00,44,7.90
2014,04,28,00,45,7.80
2014,04,28,00,46,7.80
2014,04,28,00,47,7.80
2014,04,28,00,48,7.80
2014,04,28,00,49,7.80
2014,04,28,00,50,7.80
2014,04,28,00,51,7.80
2014,04,28,00,52,7.80
2014,04,28,00,53,7.70
2014,04,28,00,54,7.70
2014,04,28,00,55,7.70
2014,04,28,00,56,7.60
2014,04,28,00,57,7.50
2014,04,28,00,58,7.40
2014,04,28,00,59,7.30
2014,04,28,01,00,7.20
2014,04,28,01,01,7.20
2014,04,28,01,02,7.10
2014,04,28,01,03,7.00
2014,04,28,01,04,6.90
2014,04,28,01,05,6.80
2014,04,28,01,06,6.60
2014,04,28,01,07,6.50
2014,04,28,01,08,6.40
2014,04,28,01,09,6.30
2014,04,28,01,10,6.20
2014,04,28,01,11,6.10
2014,04,28,01,12,6.00
2014,04,28,01,13,6.00
2014,04,28,01,14,5.90
2014,04,28,01,15,5.90
2014,04,28,01,16,5.80
2014,04,28,01,17,5.80
2014,04,28,01,18,5.70
2014,04,28,01,19,5.70
2014,04,28,01,20,5.60
2014,04,28,01,21,5.60
2014,04,28,01,22,5.60
2014,04,28,01,23,5.50
2014,04,28,01,24,5.50
2014,04,28,01,25,5.40
2014,04,28,01,26,5.40
2014,04,28,01,27,5.40
2014,04,28,01,28,5.50
2014,04,28,01,29,5.50
2014,04,28,01,30,5.50
2014,04,28,01,31,5.40
2014,04,28,01,32,5.40
2014,04,28,01,33,5.40
2014,04,28,01,34,5.40
2014,04,28,01,35,5.40
2014,04,28,01,36,5.40
2014,04,28,01,37,5.50
2014,04,28,01,38,5.50
2014,04,28,01,39,5.60
2014,04,28,01,40,5.60
2014,04,28,01,41,5.60
2014,04,28,01,42,5.70
2014,04,28,01,43,5.70
2014,04,28,01,44,5.70
2014,04,28,01,45,5.70
2014,04,28,01,46,5.70
2014,04,28,01,47,5.60
2014,04,28,01,48,5.60
2014,04,28,01,49,5.60
2014,04,28,01,50,5.60
2014,04,28,01,51,5.50
2014,04,28,01,52,5.50
2014,04,28,01,53,5.40
2014,04,28,01,54,5.40
2014,04,28,01,55,5.40
2014,04,28,01,56,5.30
2014,04,28,01,57,5.30
2014,04,28,01,58,5.30
2014,04,28,01,59,5.20
2014,04,28,02,00,5.20
2014,04,28,02,01,5.20
2014,04,28,02,02,5.20
2014,04,28,02,03,5.20
2014,04,28,02,04,5.20
2014,04,28,02,05,5.20
2014,04,28,02,06,5.10
2014,04,28,02,07,5.10
2014,04,28,02,08,5.10
2014,04,28,02,09,5.00
2014,04,28,02,10,5.00
2014,04,28,02,11,5.00
2014,04,28,02,12,5.10
2014,04,28,02,13,5.10
2014,04,28,02,14,5.10
2014,04,28,02,15,5.10
2014,04,28,02,16,5.10
2014,04,28,02,17,5.10
2014,04,28,02,18,5.10
2014,04,28,02,19,5.20
2014,04,28,02,20,5.30
2014,04,28,02,21,5.30
2014,04,28,02,22,5.40
2014,04,28,02,23,5.40
2014,04,28,02,24,5.40
2014,04,28,02,25,5.50
2014,04,28,02,26,5.60
2014,04,28,02,27,5.70
2014,04,28,02,28,5.80
2014,04,28,02,29,5.80
2014,04,28,02,30,5.80
2014,04,28,02,31,5.80
2014,04,28,02,32,5.70
2014,04,28,02,33,5.70
2014,04,28,02,34,5.70
2014,04,28,02,35,5.60
2014,04,28,02,36,5.60
2014,04,28,02,37,5.60
2014,04,28,02,38,5.60
2014,04,28,02,39,5.50
2014,04,28,02,40,5.50
2014,04,28,02,41,5.40
2014,04,28,02,42,5.30
2014,04,28,02,43,5.30
2014,04,28,02,44,5.20
2014,04,28,02,45,5.10
2014,04,28,02,46,5.10
2014,04,28,02,47,5.00
2014,04,28,02,48,4.90
2014,04,28,02,49,4.90
2014,04,28,02,50,4.80
2014,04,28,02,51,4.80
2014,04,28,02,52,4.80
2014,04,28,02,53,4.80
2014,04,28,02,54,4.70
2014,04,28,02,55,4.70
2014,04,28,02,56,4.70
2014,04,28,02,57,4.70
2014,04,28,02,58,4.70
2014,04,28,02,59,4.70
2014,04,28,03,00,4.70
2014,04,28,03,01,4.60
2014,04,28,03,02,4.60
2014,04,28,03,03,4.60
2014,04,28,03,04,4.60
2014,04,28,03,05,4.60
2014,04,28,03,06,4.60
2014,04,28,03,07,4.60
2014,04,28,03,08,4.60
2014,04,28,03,09,4.50
2014,04,28,03,10,4.50
2014,04,28,03,11,4.50
2014,04,28,03,12,4.40
2014,04,28,03,13,4.40
2014,04,28,03,14,4.40
2014,04,28,03,15,4.40
2014,04,28,03,16,4.40
2014,04,28,03,17,4.40
2014,04,28,03,18,4.40
2014,04,28,03,19,4.40
2014,04,28,03,20,4.40
2014,04,28,03,21,4.30
2014,04,28,03,22,4.30
2014,04,28,03,23,4.30
2014,04,28,03,24,4.30
2014,04,28,03,25,4.30
2014,04,28,03,26,4.30
2014,04,28,03,27,4.30
2014,04,28,03,28,4.30
2014,04,28,03,29,4.30
2014,04,28,03,30,4.30
2014,04,28,03,31,4.30
2014,04,28,03,32,4.30
2014,04,28,03,33,4.30
2014,04,28,03,34,4.30
2014,04,28,03,35,4.30
2014,04,28,03,36,4.30
2014,04,28,03,37,4.20
2014,04,28,03,38,4.20
2014,04,28,03,39,4.30
2014,04,28,03,40,4.30
2014,04,28,03,41,4.30
2014,04,28,03,42,4.30
2014,04,28,03,43,4.20
2014,04,28,03,44,4.20
2014,04,28,03,45,4.20
2014,04,28,03,46,4.20
2014,04,28,03,47,4.20
2014,04,28,03,48,4.20
2014,04,28,03,49,4.20
2014,04,28,03,50,4.20
2014,04,28,03,51,4.20
2014,04,28,03,52,4.20
2014,04,28,03,53,4.20
2014,04,28,03,54,4.20
2014,04,28,03,55,4.20
2014,04,28,03,56,4.20
2014,04,28,03,57,4.20
2014,04,28,03,58,4.20
2014,04,28,03,59,4.10
2014,04,28,04,00,4.10
2014,04,28,04,01,4.10
2014,04,28,04,02,4.10
2014,04,28,04,03,4.10
2014,04,28,04,04,4.10
2014,04,28,04,05,4.10
2014,04,28,04,06,4.10
2014,04,28,04,07,4.10
2014,04,28,04,08,4.10
2014,04,28,04,09,4.10
2014,04,28,04,10,4.10
2014,04,28,04,11,4.10
2014,04,28,04,12,4.10
2014,04,28,04,13,4.00
2014,04,28,04,14,4.00
2014,04,28,04,15,4.00
2014,04,28,04,16,4.00
2014,04,28,04,17,4.10
2014,04,28,04,18,4.10
2014,04,28,04,19,4.10
2014,04,28,04,20,4.10
2014,04,28,04,21,4.10
2014,04,28,04,22,4.10
2014,04,28,04,23,4.20
2014,04,28,04,24,4.20
2014,04,28,04,25,4.20
2014,04,28,04,26,4.20
2014,04,28,04,27,4.10
2014,04,28,04,28,4.10
2014,04,28,04,29,4.10
2014,04,28,04,30,4.10
2014,04,28,04,31,4.10
2014,04,28,04,32,4.00
2014,04,28,04,33,4.00
2014,04,28,04,34,4.00
2014,04,28,04,35,3.90
2014,04,28,04,36,3.90
2014,04,28,04,37,3.90
2014,04,28,04,38,3.90
2014,04,28,04,39,3.90
2014,04,28,04,40,3.90
2014,04,28,04,41,3.90
2014,04,28,04,42,3.90
2014,04,28,04,43,3.90
2014,04,28,04,44,3.90
2014,04,28,04,45,3.80
2014,04,28,04,46,3.80
2014,04,28,04,47,3.80
2014,04,28,04,48,3.80
2014,04,28,04,49,3.80
2014,04,28,04,50,3.80
2014,04,28,04,51,3.80
2014,04,28,04,52,3.80
2014,04,28,04,53,3.80
2014,04,28,04,54,3.80
2014,04,28,04,55,3.80
2014,04,28,04,56,3.80
2014,04,28,04,57,3.80
2014,04,28,04,58,3.80
2014,04,28,04,59,3.80
2014,04,28,05,00,3.80
2014,04,28,05,01,3.90
2014,04,28,05,02,3.80
2014,04,28,05,03,3.80
2014,04,28,05,04,3.80
2014,04,28,05,05,3.80
2014,04,28,05,06,3.80
2014,04,28,05,07,3.80
2014,04,28,05,08,3.70
2014,04,28,05,09,3.70
2014,04,28,05,10,3.70
2014,04,28,05,11,3.70
2014,04,28,05,12,3.70
2014,04,28,05,13,3.70
2014,04,28,05,14,3.80
2014,04,28,05,15,3.80
2014,04,28,05,16,3.80
2014,04,28,05,17,3.80
2014,04,28,05,18,3.80
2014,04,28,05,19,3.80
2014,04,28,05,20,3.90
2014,04,28,05,21,3.90
2014,04,28,05,22,3.90
2014,04,28,05,23,3.80
2014,04,28,05,24,3.80
2014,04,28,05,25,3.80
2014,04,28,05,26,3.80
2014,04,28,05,27,3.80
2014,04,28,05,28,3.80
2014,04,28,05,29,3.70
2014,04,28,05,30,3.70
2014,04,28,05,31,3.60
2014,04,28,05,32,3.60
2014,04,28,05,33,3.50
2014,04,28,05,34,3.50
2014,04,28,05,35,3.40
2014,04,28,05,36,3.40
2014,04,28,05,37,3.40
2014,04,28,05,38,3.30
2014,04,28,05,39,3.30
2014,04,28,05,40,3.30
2014,04,28,05,41,3.30
2014,04,28,05,42,3.30
2014,04,28,05,43,3.30
2014,04,28,05,44,3.30
2014,04,28,05,45,3.30
2014,04,28,05,46,3.30
2014,04,28,05,47,3.30
2014,04,28,05,48,3.30
2014,04,28,05,49,3.20
2014,04,28,05,50,3.20
2014,04,28,05,51,3.20
2014,04,28,05,52,3.20
2014,04,28,05,53,3.20
2014,04,28,05,54,3.10
2014,04,28,05,55,3.10
2014,04,28,05,56,3.10
2014,04,28,05,57,3.10
2014,04,28,05,58,3.00
2014,04,28,05,59,3.00
2014,04,28,06,00,3.00
2014,04,28,06,01,3.00
2014,04,28,06,02,2.90
2014,04,28,06,03,2.90
2014,04,28,06,04,2.90
2014,04,28,06,05,2.90
2014,04,28,06,06,2.90
2014,04,28,06,07,2.90
2014,04,28,06,08,2.90
2014,04,28,06,09,2.90
2014,04,28,06,10,2.90
2014,04,28,06,11,2.90
2014,04,28,06,12,2.90
2014,04,28,06,13,2.90
2014,04,28,06,14,3.00
2014,04,28,06,15,2.90
2014,04,28,06,16,2.90
2014,04,28,06,17,2.90
2014,04,28,06,18,2.90
2014,04,28,06,19,2.90
2014,04,28,06,20,2.90
2014,04,28,06,21,2.80
2014,04,28,06,22,2.80
2014,04,28,06,23,2.80
2014,04,28,06,24,2.80
2014,04,28,06,25,2.80
2014,04,28,06,26,2.80
2014,04,28,06,27,2.80
2014,04,28,06,28,2.80
2014,04,28,06,29,2.80
2014,04,28,06,30,2.80
2014,04,28,06,31,2.80
2014,04,28,06,32,2.80
2014,04,28,06,33,2.90
2014,04,28,06,34,2.90
2014,04,28,06,35,2.90
2014,04,28,06,36,2.90
2014,04,28,06,37,2.90
2014,04,28,06,38,3.00
2014,04,28,06,39,3.00
2014,04,28,06,40,3.00
2014,04,28,06,41,3.00
2014,04,28,06,42,3.10
2014,04,28,06,43,3.10
2014,04,28,06,44,3.10
2014,04,28,06,45,3.10
2014,04,28,06,46,3.10
2014,04,28,06,47,3.10
2014,04,28,06,48,3.10
2014,04,28,06,49,3.10
2014,04,28,06,50,3.10
2014,04,28,06,51,3.10
2014,04,28,06,52,3.10
2014,04,28,06,53,3.10
2014,04,28,06,54,3.20
2014,04,28,06,55,3.20
2014,04,28,06,56,3.20
2014,04,28,06,57,3.30
2014,04,28,06,58,3.30
2014,04,28,06,59,3.30
2014,04,28,07,00,3.30
2014,04,28,07,01,3.30
2014,04,28,07,02,3.40
2014,04,28,07,03,3.40
2014,04,28,07,04,3.40
2014,04,28,07,05,3.40
2014,04,28,07,06,3.40
2014,04,28,07,07,3.40
2014,04,28,07,08,3.50
2014,04,28,07,09,3.50
2014,04,28,07,10,3.50
2014,04,28,07,11,3.60
2014,04,28,07,12,3.60
2014,04,28,07,13,3.60
2014,04,28,07,14,3.70
2014,04,28,07,15,3.70
2014,04,28,07,16,3.80
2014,04,28,07,17,3.90
2014,04,28,07,18,4.00
2014,04,28,07,19,4.00
2014,04,28,07,20,4.10
2014,04,28,07,21,4.10
2014,04,28,07,22,4.10
2014,04,28,07,23,4.10
2014,04,28,07,24,4.10
2014,04,28,07,25,4.10
2014,04,28,07,26,4.20
2014,04,28,07,27,4.20
2014,04,28,07,28,4.20
2014,04,28,07,29,4.20
2014,04,28,07,30,4.20
2014,04,28,07,31,4.20
2014,04,28,07,32,4.30
2014,04,28,07,33,4.30
2014,04,28,07,34,4.40
2014,04,28,07,35,4.40
2014,04,28,07,36,4.60
2014,04,28,07,37,4.70
2014,04,28,07,38,4.80
2014,04,28,07,39,4.90
2014,04,28,07,40,5.00
2014,04,28,07,41,5.10
2014,04,28,07,42,5.20
2014,04,28,07,43,5.20
2014,04,28,07,44,5.30
2014,04,28,07,45,5.30
2014,04,28,07,46,5.40
2014,04,28,07,47,5.40
2014,04,28,07,48,5.50
2014,04,28,07,49,5.60
2014,04,28,07,50,5.60
2014,04,28,07,51,5.60
2014,04,28,07,52,5.60
2014,04,28,07,53,5.70
2014,04,28,07,54,5.70
2014,04,28,07,55,5.80
2014,04,28,07,56,5.80
2014,04,28,07,57,5.90
2014,04,28,07,58,5.90
2014,04,28,07,59,5.90
2014,04,28,08,00,6.00
2014,04,28,08,01,6.00
2014,04,28,08,02,6.10
2014,04,28,08,03,6.20
2014,04,28,08,04,6.30
2014,04,28,08,05,6.40
2014,04,28,08,06,6.50
2014,04,28,08,07,6.60
2014,04,28,08,08,6.70
2014,04,28,08,09,6.70
2014,04,28,08,10,6.80
2014,04,28,08,11,6.80
2014,04,28,08,12,6.80
2014,04,28,08,13,6.90
2014,04,28,08,14,7.00
2014,04,28,08,15,7.10
2014,04,28,08,16,7.20
2014,04,28,08,17,7.20
2014,04,28,08,18,7.30
2014,04,28,08,19,7.40
2014,04,28,08,20,7.50
2014,04,28,08,21,7.60
2014,04,28,08,22,7.60
2014,04,28,08,23,7.70
2014,04,28,08,24,7.80
2014,04,28,08,25,7.80
2014,04,28,08,26,7.90
2014,04,28,08,27,7.90
2014,04,28,08,28,7.90
2014,04,28,08,29,8.00
2014,04,28,08,30,8.10
2014,04,28,08,31,8.20
2014,04,28,08,32,8.30
2014,04,28,08,33,8.30
2014,04,28,08,34,8.50
2014,04,28,08,35,8.60
2014,04,28,08,36,8.70
2014,04,28,08,37,8.80
2014,04,28,08,38,9.00
2014,04,28,08,39,9.10
2014,04,28,08,40,9.30
2014,04,28,08,41,9.40
2014,04,28,08,42,9.40
2014,04,28,08,43,9.50
2014,04,28,08,44,9.50
2014,04,28,08,45,9.60
2014,04,28,08,46,9.60
2014,04,28,08,47,9.60
2014,04,28,08,48,9.60
2014,04,28,08,49,9.60
2014,04,28,08,50,9.60
2014,04,28,08,51,9.70
2014,04,28,08,52,9.70
2014,04,28,08,53,9.70
2014,04,28,08,54,9.70
2014,04,28,08,55,9.70
2014,04,28,08,56,9.70
2014,04,28,08,57,9.70
2014,04,28,08,58,9.70
2014,04,28,08,59,9.70
2014,04,28,09,00,9.70
2014,04,28,09,01,9.80
2014,04,28,09,02,9.80
2014,04,28,09,03,9.80
2014,04,28,09,04,9.80
2014,04,28,09,05,9.80
2014,04,28,09,06,9.80
2014,04,28,09,07,9.80
2014,04,28,09,08,9.90
2014,04,28,09,09,9.90
2014,04,28,09,10,10.00
2014,04,28,09,11,10.00
2014,04,28,09,12,10.00
2014,04,28,09,13,10.00
2014,04,28,09,14,10.00
2014,04,28,09,15,10.00
2014,04,28,09,16,10.00
2014,04,28,09,17,10.00
2014,04,28,09,18,10.00
2014,04,28,09,19,10.00
2014,04,28,09,20,10.00
2014,04,28,09,21,9.90
2014,04,28,09,22,9.90
2014,04,28,09,23,9.80
2014,04,28,09,24,9.80
2014,04,28,09,25,9.80
2014,04,28,09,26,9.80
2014,04,28,09,27,9.80
2014,04,28,09,28,9.80
2014,04,28,09,29,9.90
2014,04,28,09,30,9.90
2014,04,28,09,31,9.90
2014,04,28,09,32,10.00
2014,04,28,09,33,9.90
2014,04,28,09,34,9.90
2014,04,28,09,35,9.90
2014,04,28,09,36,9.90
2014,04,28,09,37,9.90
2014,04,28,09,38,9.90
2014,04,28,09,39,9.90
2014,04,28,09,40,9.90
2014,04,28,09,41,9.90
2014,04,28,09,42,9.90
2014,04,28,09,43,9.80
2014,04,28,09,44,9.80
2014,04,28,09,45,9.70
2014,04,28,09,46,9.70
2014,04,28,09,47,9.60
2014,04,28,09,48,9.60
2014,04,28,09,49,9.60
2014,04,28,09,50,9.60
2014,04,28,09,51,9.70
2014,04,28,09,52,9.70
2014,04,28,09,53,9.70
2014,04,28,09,54,9.80
2014,04,28,09,55,9.80
2014,04,28,09,56,9.90
2014,04,28,09,57,9.80
2014,04,28,09,58,9.80
2014,04,28,09,59,9.80
2014,04,28,10,00,9.80
2014,04,28,10,01,9.70
2014,04,28,10,02,9.60
2014,04,28,10,03,9.60
2014,04,28,10,04,9.70
2014,04,28,10,05,9.70
2014,04,28,10,06,9.70
2014,04,28,10,07,9.70
2014,04,28,10,08,9.80
2014,04,28,10,09,9.80
2014,04,28,10,10,9.80
2014,04,28,10,11,9.70
2014,04,28,10,12,9.60
2014,04,28,10,13,9.60
2014,04,28,10,14,9.60
2014,04,28,10,15,9.60
2014,04,28,10,16,9.70
2014,04,28,10,17,9.80
2014,04,28,10,18,9.80
2014,04,28,10,19,9.80
2014,04,28,10,20,9.70
2014,04,28,10,21,9.70
2014,04,28,10,22,9.70
2014,04,28,10,23,9.70
2014,04,28,10,24,9.60
2014,04,28,10,25,9.60
2014,04,28,10,26,9.60
2014,04,28,10,27,9.50
2014,04,28,10,28,9.50
2014,04,28,10,29,9.50
2014,04,28,10,30,9.50
2014,04,28,10,31,9.60
2014,04,28,10,32,9.60
2014,04,28,10,33,9.60
2014,04,28,10,34,9.60
2014,04,28,10,35,9.60
2014,04,28,10,36,9.70
2014,04,28,10,37,9.60
2014,04,28,10,38,9.60
2014,04,28,10,39,9.60
2014,04,28,10,40,9.60
2014,04,28,10,41,9.70
2014,04,28,10,42,9.80
2014,04,28,10,43,9.80
2014,04,28,10,44,9.80
2014,04,28,10,45,9.90
2014,04,28,10,46,9.90
2014,04,28,10,47,10.00
2014,04,28,10,48,10.00
2014,04,28,10,49,10.00
2014,04,28,10,50,10.00
2014,04,28,10,51,10.00
2014,04,28,10,52,10.00
2014,04,28,10,53,10.00
2014,04,28,10,54,10.00
2014,04,28,10,55,10.10
2014,04,28,10,56,10.10
2014,04,28,10,57,10.10
2014,04,28,10,58,10.20
2014,04,28,10,59,10.30
2014,04,28,11,00,10.40
2014,04,28,11,01,10.50
2014,04,28,11,02,10.60
2014,04,28,11,03,10.70
2014,04,28,11,04,10.80
2014,04,28,11,05,10.80
2014,04,28,11,06,10.80
2014,04,28,11,07,10.80
2014,04,28,11,08,10.90
2014,04,28,11,09,11.00
2014,04,28,11,10,11.00
2014,04,28,11,11,10.90
2014,04,28,11,12,10.80
2014,04,28,11,13,10.90
2014,04,28,11,14,10.90
2014,04,28,11,15,11.00
2014,04,28,11,16,11.10
2014,04,28,11,17,11.10
2014,04,28,11,18,11.00
2014,04,28,11,19,11.00
2014,04,28,11,20,11.00
2014,04,28,11,21,11.10
2014,04,28,11,22,11.00
2014,04,28,11,23,11.00
2014,04,28,11,24,10.90
2014,04,28,11,25,10.90
2014,04,28,11,26,11.00
2014,04,28,11,27,11.00
2014,04,28,11,28,11.00
2014,04,28,11,29,11.00
2014,04,28,11,30,11.00
2014,04,28,11,31,11.10
2014,04,28,11,32,11.20
2014,04,28,11,33,11.20
2014,04,28,11,34,11.20
2014,04,28,11,35,11.20
2014,04,28,11,36,11.20
2014,04,28,11,37,11.20
2014,04,28,11,38,11.30
2014,04,28,11,39,11.40
2014,04,28,11,40,11.40
2014,04,28,11,41,11.40
2014,04,28,11,42,11.30
2014,04,28,11,43,11.40
2014,04,28,11,44,11.40
2014,04,28,11,45,11.40
2014,04,28,11,46,11.40
2014,04,28,11,47,11.40
2014,04,28,11,48,11.40
2014,04,28,11,49,11.40
2014,04,28,11,50,11.40
2014,04,28,11,51,11.40
2014,04,28,11,52,11.40
2014,04,28,11,53,11.30
2014,04,28,11,54,11.30
2014,04,28,11,55,11.30
2014,04,28,11,56,11.30
2014,04,28,11,57,11.30
2014,04,28,11,58,11.30
2014,04,28,11,59,11.30
2014,04,28,12,00,11.40
2014,04,28,12,01,11.40
2014,04,28,12,02,11.50
2014,04,28,12,03,11.50
2014,04,28,12,04,11.50
2014,04,28,12,05,11.50
2014,04,28,12,06,11.40
2014,04,28,12,07,11.30
2014,04,28,12,08,11.30
2014,04,28,12,09,11.30
2014,04,28,12,10,11.30
2014,04,28,12,11,11.30
2014,04,28,12,12,11.30
2014,04,28,12,13,11.30
2014,04,28,12,14,11.30
2014,04,28,12,15,11.30
2014,04,28,12,16,11.30
2014,04,28,12,17,11.40
2014,04,28,12,18,11.50
2014,04,28,12,19,11.50
2014,04,28,12,20,11.50
2014,04,28,12,21,11.50
2014,04,28,12,22,11.60
2014,04,28,12,23,11.60
2014,04,28,12,24,11.70
2014,04,28,12,25,11.70
2014,04,28,12,26,11.70
2014,04,28,12,27,11.60
2014,04,28,12,28,11.70
2014,04,28,12,29,11.80
2014,04,28,12,30,11.90
2014,04,28,12,31,12.00
2014,04,28,12,32,12.00
2014,04,28,12,33,11.90
2014,04,28,12,34,11.90
2014,04,28,12,35,11.90
2014,04,28,12,36,11.80
2014,04,28,12,37,11.80
2014,04,28,12,38,11.70
2014,04,28,12,39,11.70
2014,04,28,12,40,11.60
2014,04,28,12,41,11.40
2014,04,28,12,42,11.30
2014,04,28,12,43,11.20
2014,04,28,12,44,11.10
2014,04,28,12,45,11.10
2014,04,28,12,46,11.10
2014,04,28,12,47,11.00
2014,04,28,12,48,10.90
2014,04,28,12,49,10.80
2014,04,28,12,50,10.80
2014,04,28,12,51,10.80
2014,04,28,12,52,10.90
2014,04,28,12,53,11.10
2014,04,28,12,54,11.20
2014,04,28,12,55,11.20
2014,04,28,12,56,11.20
2014,04,28,12,57,11.20
2014,04,28,12,58,11.20
2014,04,28,12,59,11.20
2014,04,28,13,00,11.20
2014,04,28,13,01,11.20
2014,04,28,13,02,11.10
2014,04,28,13,03,11.10
2014,04,28,13,04,11.10
2014,04,28,13,05,11.00
2014,04,28,13,06,10.90
2014,04,28,13,07,10.90
2014,04,28,13,08,10.90
2014,04,28,13,09,10.90
2014,04,28,13,10,10.90
2014,04,28,13,11,10.80
2014,04,28,13,12,10.80
2014,04,28,13,13,10.80
2014,04,28,13,14,10.80
2014,04,28,13,15,10.80
2014,04,28,13,16,10.80
2014,04,28,13,17,10.70
2014,04,28,13,18,10.70
2014,04,28,13,19,10.70
2014,04,28,13,20,10.60
2014,04,28,13,21,10.60
2014,04,28,13,22,10.60
2014,04,28,13,23,10.60
2014,04,28,13,24,10.60
2014,04,28,13,25,10.60
2014,04,28,13,26,10.60
2014,04,28,13,27,10.60
2014,04,28,13,28,10.50
2014,04,28,13,29,10.50
2014,04,28,13,30,10.50
2014,04,28,13,31,10.60
2014,04,28,13,32,10.60
2014,04,28,13,33,10.60
2014,04,28,13,34,10.60
2014,04,28,13,35,10.70
2014,04,28,13,36,10.70
2014,04,28,13,37,10.80
2014,04,28,13,38,10.80
2014,04,28,13,39,10.90
2014,04,28,13,40,10.90
2014,04,28,13,41,10.90
2014,04,28,13,42,10.90
2014,04,28,13,43,10.90
2014,04,28,13,44,10.90
2014,04,28,13,45,11.00
2014,04,28,13,46,11.00
2014,04,28,13,47,11.10
2014,04,28,13,48,11.10
2014,04,28,13,49,11.20
2014,04,28,13,50,11.20
2014,04,28,13,51,11.30
2014,04,28,13,52,11.30
2014,04,28,13,53,11.30
2014,04,28,13,54,11.30
2014,04,28,13,55,11.30
2014,04,28,13,56,11.40
2014,04,28,13,57,11.40
2014,04,28,13,58,11.40
2014,04,28,13,59,11.40
2014,04,28,14,00,11.40
2014,04,28,14,01,11.40
2014,04,28,14,02,11.50
2014,04,28,14,03,11.50
2014,04,28,14,04,11.50
2014,04,28,14,05,11.60
2014,04,28,14,06,11.60
2014,04,28,14,07,11.70
2014,04,28,14,08,11.90
2014,04,28,14,09,12.00
2014,04,28,14,10,12.10
2014,04,28,14,11,12.20
2014,04,28,14,12,12.20
2014,04,28,14,13,12.10
2014,04,28,14,14,12.10
2014,04,28,14,15,12.10
2014,04,28,14,16,12.20
2014,04,28,14,17,12.20
2014,04,28,14,18,12.30
2014,04,28,14,19,12.40
2014,04,28,14,20,12.60
2014,04,28,14,21,12.60
2014,04,28,14,22,12.60
2014,04,28,14,23,12.60
2014,04,28,14,24,12.70
2014,04,28,14,25,12.70
2014,04,28,14,26,12.70
2014,04,28,14,27,12.60
2014,04,28,14,28,12.60
2014,04,28,14,29,12.70
2014,04,28,14,30,12.60
2014,04,28,14,31,12.40
2014,04,28,14,32,12.30
2014,04,28,14,33,12.30
2014,04,28,14,34,12.40
2014,04,28,14,35,12.50
2014,04,28,14,36,12.50
2014,04,28,14,37,12.60
2014,04,28,14,38,12.70
2014,04,28,14,39,12.60
2014,04,28,14,40,12.60
2014,04,28,14,41,12.60
2014,04,28,14,42,12.60
2014,04,28,14,43,12.70
2014,04,28,14,44,12.70
2014,04,28,14,45,12.70
2014,04,28,14,46,12.70
2014,04,28,14,47,12.70
2014,04,28,14,48,12.60
2014,04,28,14,49,12.60
2014,04,28,14,50,12.60
2014,04,28,14,51,12.60
2014,04,28,14,52,12.70
2014,04,28,14,53,12.80
2014,04,28,14,54,12.70
2014,04,28,14,55,12.80
2014,04,28,14,56,12.80
2014,04,28,14,57,12.80
2014,04,28,14,58,12.90
2014,04,28,14,59,12.90
2014,04,28,15,00,12.80
2014,04,28,15,01,12.70
2014,04,28,15,02,12.60
2014,04,28,15,03,12.60
2014,04,28,15,04,12.50
2014,04,28,15,05,12.40
2014,04,28,15,06,12.30
2014,04,28,15,07,12.30
2014,04,28,15,08,12.30
2014,04,28,15,09,12.50
2014,04,28,15,10,12.60
2014,04,28,15,11,12.70
2014,04,28,15,12,12.80
2014,04,28,15,13,12.90
2014,04,28,15,14,12.90
2014,04,28,15,15,13.00
2014,04,28,15,16,13.10
2014,04,28,15,17,13.10
2014,04,28,15,18,13.20
2014,04,28,15,19,13.20
2014,04,28,15,20,13.10
2014,04,28,15,21,13.00
2014,04,28,15,22,13.00
2014,04,28,15,23,12.90
2014,04,28,15,24,12.80
2014,04,28,15,25,12.80
2014,04,28,15,26,12.70
2014,04,28,15,27,12.60
2014,04,28,15,28,12.50
2014,04,28,15,29,12.40
2014,04,28,15,30,12.30
2014,04,28,15,31,12.30
2014,04,28,15,32,12.30
2014,04,28,15,33,12.30
2014,04,28,15,34,12.30
2014,04,28,15,35,12.30
2014,04,28,15,36,12.30
2014,04,28,15,37,12.30
2014,04,28,15,38,12.30
2014,04,28,15,39,12.20
2014,04,28,15,40,12.20
2014,04,28,15,41,12.20
2014,04,28,15,42,12.20
2014,04,28,15,43,12.20
2014,04,28,15,44,12.20
2014,04,28,15,45,12.20
2014,04,28,15,46,12.20
2014,04,28,15,47,12.20
2014,04,28,15,48,12.30
2014,04,28,15,49,12.30
2014,04,28,15,50,12.30
2014,04,28,15,51,12.20
2014,04,28,15,52,12.20
2014,04,28,15,53,12.30
2014,04,28,15,54,12.30
2014,04,28,15,55,12.30
2014,04,28,15,56,12.40
2014,04,28,15,57,12.30
2014,04,28,15,58,12.30
2014,04,28,15,59,12.20
2014,04,28,16,00,12.20
2014,04,28,16,01,12.20
2014,04,28,16,02,12.20
2014,04,28,16,03,12.30
2014,04,28,16,04,12.30
2014,04,28,16,05,12.30
2014,04,28,16,06,12.20
2014,04,28,16,07,12.20
2014,04,28,16,08,12.20
2014,04,28,16,09,12.20
2014,04,28,16,10,12.10
2014,04,28,16,11,12.10
2014,04,28,16,12,12.10
2014,04,28,16,13,12.10
2014,04,28,16,14,12.10
2014,04,28,16,15,12.10
2014,04,28,16,16,12.10
2014,04,28,16,17,12.10
2014,04,28,16,18,12.20
2014,04,28,16,19,12.20
2014,04,28,16,20,12.10
2014,04,28,16,21,12.10
2014,04,28,16,22,12.20
2014,04,28,16,23,12.20
2014,04,28,16,24,12.20
2014,04,28,16,25,12.30
2014,04,28,16,26,12.30
2014,04,28,16,27,12.40
2014,04,28,16,28,12.40
2014,04,28,16,29,12.50
2014,04,28,16,30,12.50
2014,04,28,16,31,12.60
2014,04,28,16,32,12.60
2014,04,28,16,33,12.60
2014,04,28,16,34,12.50
2014,04,28,16,35,12.50
2014,04,28,16,36,12.40
2014,04,28,16,37,12.40
2014,04,28,16,38,12.40
2014,04,28,16,39,12.50
2014,04,28,16,40,12.40
2014,04,28,16,41,12.40
2014,04,28,16,42,12.30
2014,04,28,16,43,12.30
2014,04,28,16,44,12.20
2014,04,28,16,45,12.20
2014,04,28,16,46,12.20
2014,04,28,16,47,12.20
2014,04,28,16,48,12.10
2014,04,28,16,49,12.10
2014,04,28,16,50,12.10
2014,04,28,16,51,12.10
2014,04,28,16,52,12.10
2014,04,28,16,53,12.10
2014,04,28,16,54,12.10
2014,04,28,16,55,12.10
2014,04,28,16,56,12.10
2014,04,28,16,57,12.10
2014,04,28,16,58,12.10
2014,04,28,16,59,12.10
2014,04,28,17,00,12.10
2014,04,28,17,01,12.20
2014,04,28,17,02,12.20
2014,04,28,17,03,12.20
2014,04,28,17,04,12.20
2014,04,28,17,05,12.20
2014,04,28,17,06,12.10
2014,04,28,17,07,12.10
2014,04,28,17,08,12.10
2014,04,28,17,09,12.10
2014,04,28,17,10,12.00
2014,04,28,17,11,12.00
2014,04,28,17,12,12.00
2014,04,28,17,13,12.10
2014,04,28,17,14,12.10
2014,04,28,17,15,12.10
2014,04,28,17,16,12.20
2014,04,28,17,17,12.30
2014,04,28,17,18,12.30
2014,04,28,17,19,12.40
2014,04,28,17,20,12.50
2014,04,28,17,21,12.70
2014,04,28,17,22,12.80
2014,04,28,17,23,12.90
2014,04,28,17,24,13.10
2014,04,28,17,25,13.10
2014,04,28,17,26,13.00
2014,04,28,17,27,13.00
2014,04,28,17,28,13.00
2014,04,28,17,29,13.00
2014,04,28,17,30,13.10
2014,04,28,17,31,13.00
2014,04,28,17,32,13.00
2014,04,28,17,33,12.90
2014,04,28,17,34,12.90
2014,04,28,17,35,12.90
2014,04,28,17,36,12.80
2014,04,28,17,37,12.80
2014,04,28,17,38,12.80
2014,04,28,17,39,12.80
2014,04,28,17,40,12.80
2014,04,28,17,41,12.80
2014,04,28,17,42,12.80
2014,04,28,17,43,12.80
2014,04,28,17,44,12.70
2014,04,28,17,45,12.70
2014,04,28,17,46,12.60
2014,04,28,17,47,12.60